Location: Bandys
(35.4750°N, 81.0830°W)
Time: 01:47:58
(UTC-05:00)

Daily predictions for brighter satellites

Satellite Brightness Start Highest point End
(mag) Time Altitude Azimuth Time Altitude Azimuth Time Altitude Azimuth
CZ-3C R/B 4.2 03:31:24 28° SSE 03:31:42 28° SSE 03:51:01 10° E
Cosmos 2237 Rocket 4.5 04:24:05 14° NNE 04:24:05 14° NNE 04:24:48 10° NNE
USA 215 3.1 04:31:19 10° NE 04:37:30 81° NNE 04:37:30 81° NNE
CZ-3 R/B 4.0 04:42:43 10° SW 04:56:21 25° S 05:01:38 10° ESE
CENTAUR R/B 2.5 04:57:18 61° NNW 04:57:18 61° NNW 05:03:16 10° NNE
Meteor 1-14 Rocket 4.3 04:51:48 10° S 04:57:30 73° E 05:03:05 10° NNE
Cosmos 2333 Rocket 4.3 05:08:13 12° N 05:08:13 12° N 05:08:44 10° N
SL-24 R/B - RUBIN 2 4.4 05:09:04 54° SW 05:09:04 54° SW 05:14:06 10° S
Cosmos 2297 4.0 05:06:50 30° N 05:09:34 62° ENE 05:15:09 10° SSE
Thor Agena Rocket 3.5 05:07:01 10° S 05:11:27 61° SW 05:11:27 61° SW
Cosmos 2181 Rocket 3.9 05:12:39 14° N 05:18:22 75° W 05:24:40 10° S
Cosmos 2151 Rocket 3.8 05:18:23 10° S 05:22:52 70° E 05:27:21 10° NNE
Cosmos 1709 Rocket 4.2 05:17:15 10° SSW 05:23:33 45° WNW 05:29:01 10° N
Meteor 1-25 Rocket 4.3 05:18:37 10° S 05:24:27 83° E 05:30:18 10° N
Cosmos 1238 Rocket 3.8 05:20:28 12° N 05:24:47 66° E 05:30:25 10° SSE
SKYMED 2 4.5 05:21:03 10° SSE 05:25:13 48° ENE 05:29:23 10° N
Cosmos 2278 Rocket 2.6 05:27:06 41° WSW 05:27:06 41° WSW 05:32:08 10° S
SL-08 ROCKET BODY 4.4 05:22:15 10° S 05:28:16 81° E 05:34:12 10° N
Timation 1 Rocket 4.3 05:26:09 23° NNW 05:30:06 85° ENE 05:36:07 10° SSE
SL-16 R/B 2.2 05:27:56 24° SW 05:31:11 55° WNW 05:36:45 10° NNE
Tiangong 2 2.7 05:32:51 26° NNE 05:32:51 26° NNE 05:34:38 10° NE
Celestis-02/Orion 38 4.5 05:26:39 10° SSE 05:31:46 75° WSW 05:34:22 30° NNW
DELTA 2 R/B (1) 3.5 05:30:38 46° WNW 05:32:22 86° SSW 05:37:56 10° ESE
Cosmos 1975 Rocket 4.2 05:38:00 28° SW 05:38:00 28° SW 05:40:33 10° SSW
Cosmos 1346 Rocket 4.0 05:35:37 10° N 05:39:18 40° ENE 05:43:00 10° SSE
CZ-4 R/B 4.4 05:37:36 10° NE 05:40:18 18° E 05:42:58 10° SE
Cosmos 1812 2.6 05:39:51 22° N 05:42:17 90° NNW 05:46:09 10° S
Lacrosse 5 3.4 05:38:41 10° S 05:43:20 36° ESE 05:48:00 10° ENE
Iridium 2 3.6 05:43:42 10° SSW 05:47:28 64° W 05:51:15 10° N
PSLV R/B 4.4 05:47:17 30° N 05:47:32 30° N 05:50:34 10° ENE
USA 32 3.9 05:42:33 10° N 05:47:47 79° W 05:53:00 10° S
Cosmos 1536 Rocket 3.5 05:48:44 10° N 05:53:12 85° W 05:57:35 10° S
Ariane Rocket 2.9 05:54:14 10° NNE 05:59:18 83° WNW 06:04:21 10° SSW
Cosmos 2237 Rocket 4.1 06:05:58 11° NNW 06:05:58 11° NNW 06:06:20 10° NNW
Meteor 1-28 Rocket 3.3 06:04:11 10° SSE 06:07:56 80° ENE 06:11:45 10° N
Okean 1 Rocket 3.2 06:04:01 10° S 06:08:27 80° E 06:12:51 10° N
Cosmos 44 Rocket 4.0 06:04:14 10° SSW 06:09:20 62° ESE 06:14:25 10° NE
Nadezhda 3 Rocket 4.3 06:06:46 10° N 06:13:08 73° E 06:19:29 10° SSE
COSMO-SKYMED 1 2.9 06:09:06 10° S 06:13:13 44° W 06:17:22 10° NNW
Gbstr 26 Del rocket 3.1 06:12:21 19° WNW 06:15:29 58° SW 06:19:23 10° SSE
Okean 1-7 Rocket 4.3 06:11:21 10° N 06:15:41 57° E 06:20:00 10° SSE
Cosmos 1680 Rocket 4.5 06:11:57 10° WSW 06:16:10 24° WNW 06:20:24 10° N
USA 129 1.6 06:18:11 10° SSE 06:19:59 69° ENE 06:22:00 10° N
USA 215 4.2 06:15:01 10° NNE 06:20:17 27° NNW 06:24:52 13° W
Cosmos 1633 2.4 06:17:35 10° S 06:21:14 75° W 06:24:53 10° N
GPS 2-05 Rocket1 2.9 06:19:02 18° W 06:21:38 87° N 06:25:16 10° E
Cosmos 921 Rocket 3.3 06:19:46 10° NNW 06:24:05 48° W 06:28:25 10° S
Cosmos 2341 Rocket 4.1 06:17:58 10° S 06:24:17 84° E 06:30:35 10° N
CSL-04 Debris 4.1 06:21:39 10° N 06:27:05 70° WNW 06:32:30 10° SSW
Cosmos 1603 3.9 06:22:58 10° SW 06:28:30 50° WNW 06:34:01 10° N
CSL-04 Rocket 3.8 06:23:29 10° N 06:28:55 57° WNW 06:34:16 10° SSW
SL-24 DEB 4.3 06:24:32 10° S 06:29:17 75° W 06:34:06 10° N
Cosmos 962 Rocket 4.5 06:23:38 10° S 06:29:47 88° W 06:36:02 10° N
Cosmos 2369 Rocket 3.2 06:30:42 10° N 06:36:12 47° ENE 06:41:40 10° SE
Cosmos 1300 Rocket 4.3 06:38:46 10° SW 06:42:41 31° WNW 06:46:37 10° NNW
CENTAUR R/B 4.2 06:45:28 10° WNW 06:48:45 14° NNW 06:52:15 10° N
MOS 1 4.4 06:44:51 10° NNE 06:50:32 85° ESE 06:56:11 10° SSW
